CAPE
2477 2305 2032 2164 2270 2462 2473 2190 2127 1843 1640 1562 1486 1344 1103 924 1049 1173 1106 893 427 451 481 473 205 444 866 1211 1618 2222 2406 1924 1990 2277 2652 2978 3328 3609 3716 3532 3356 3148 3166 3084 2883 2737 2246 1877 1828 1604 1248 1270 1052 1024 1693 1923 1913 1663 1450 1458 1163 1444 1506 1961 2118 2217 2208 2233 2288 2266 2174 2134 2052 1990 1724 1699 1926 1826 1539 1713 1518 1451 1417 1397 1435
2204 2183 2008 1983 2174 2362 2255 2018 1925 1663 1573 1599 1336 1032 1024 895 1155 969 964 923 728 173 308 382 165 266 884 1331 1636 2264 2573 2172 2068 2209 2553 2934 3318 3666 3904 3728 3508 3343 3233 3053 2922 2780 2397 2044 2033 1807 1303 1247 1153 1022 1471 2096 2044 2188 1980 1572 1295 1450 1350 1810 2053 2122 2204 2001 2067 2204 2033 2123 1893 2003 1972 1828 1807 1669 1787 1502 1704 1613 1551 1574 1612
2219 2162 2149 1808 1777 1982 1984 2024 2027 1905 1824 1457 1024 888 734 1135 1241 1044 840 443 296 98 422 221 174 188 1018 1324 1764 2213 2759 2456 2291 2232 2451 2861 3159 3424 3954 3843 3698 3425 3373 3192 3037 2794 2493 2194 2166 2003 1635 1250 1077 1046 1081 2192 2038 2206 2190 2072 1579 1536 1866 2113 2146 2108 2124 2058 2058 2098 2069 1623 1895 1820 1745 1692 1741 1564 1655 1706 1793 1711 1620 1641 1665
2580 2386 2341 1947 1795 1934 2011 2015 1874 1600 1477 1498 1159 1026 1238 1366 1318 1084 469 363 265 923 133 186 156 142 836 1209 1664 2035 2614 2731 2663 2520 2537 2526 2874 3422 3753 3899 3877 3716 3414 3292 3176 2852 2623 2394 2193 1936 1600 1473 1242 1255 1175 2025 2270 2075 2226 2057 1924 1913 1888 1932 2084 2076 2070 2071 2002 2036 2012 1953 1910 1759 1566 1718 1451 1556 1530 1454 1438 1651 1748 1542 1688
2602 2530 2991 2154 1947 1882 1841 1658 1520 1227 1062 1010 1256 1176 1189 1166 979 784 934 1045 1113 1022 6 94 103 86 203 923 1404 1505 1676 2646 2926 2790 2878 2603 2758 3107 3687 3723 3781 3771 3635 3469 3257 2968 2498 2498 2376 2112 1883 1667 1526 1434 1261 1125 1626 1718 1666 2073 1994 1922 1924 2011 1958 2030 1902 1967 1944 1912 1920 1888 1782 1738 1731 1690 1610 1514 1366 1412 1335 1313 1457 1540 1461
2574 2517 2425 2211 2011 1820 1747 1460 1477 1293 1434 1139 939 965 1067 1218 1222 1192 1651 1380 1023 721 36 7 167 52 58 313 1304 1512 1684 2001 2491 2826 2935 2723 2352 2829 3163 3723 3679 3628 3634 3656 3616 3259 2776 2579 2573 2401 2070 1826 1556 1267 1424 1297 1218 1284 1865 2072 2036 1909 1915 1942 1957 1886 1904 1880 1896 1811 1805 1855 1786 1781 1738 1709 1573 1455 1198 1111 1100 1127 1106 1274 1435
2683 2610 2481 1977 1834 1851 1800 1688 1417 1278 1134 1037 1141 1224 1293 1377 1418 1048 1047 1016 870 297 394 15 16 27 6 280 997 1533 1865 1829 1986 2320 2811 2799 2574 2772 2687 3232 3385 3560 3590 3599 3810 3539 3020 2674 2637 2685 2145 2160 1722 1530 1474 1448 1422 1389 1666 1956 2155 1888 1892 1874 1930 1869 1881 1838 1840 1778 1744 1794 1732 1709 1682 1631 1566 1449 1201 1084 971 972 1017 1152 1387
2831 2736 2401 1962 1795 1747 1760 1637 1450 1378 1276 1236 1550 1412 1255 1131 816 733 687 561 338 123 45 14 0 8 15 122 383 1339 1786 1777 1669 2183 3070 3435 3076 3045 2915 2738 2878 3148 3605 3498 3436 3522 3516 2955 2836 2749 2564 2260 2275 2012 1547 1585 1548 1465 1354 1829 1948 1976 1771 1740 1750 1795 1839 1807 1815 1756 1763 1684 1668 1604 1542 1534 1494 1406 1163 954 851 1059 1239 1188 1156
2836 2655 2211 2134 2108 1907 1758 1613 1481 1348 1250 1097 1444 1563 1332 1272 1238 1344 1273 1178 611 152 54 2 45 2 4 62 216 1242 1266 1500 1332 1671 2348 3336 3594 3449 3436 3199 3161 3621 3437 3024 3125 3307 3838 3618 3196 2866 2764 2526 2489 2215 2028 1640 1698 1567 1336 1389 1956 1815 1854 1693 1619 1698 1606 1398 1606 1585 1584 1546 1610 1537 1520 1461 1399 1327 1287 1290 1354 1297 1303 1196 1044
2726 2423 2311 2140 1928 1819 1875 1817 1665 1227 821 981 1107 1073 1133 1330 1301 1299 1146 868 756 826 461 159 160 40 18 30 158 955 826 1206 1229 2391 1726 2091 3015 3417 3496 3574 3980 3430 3439 3124 3160 3102 3176 3892 3779 3328 3142 2888 2823 2513 2308 2196 1960 1846 1630 1443 1445 1545 1723 1711 1655 1511 1582 1617 1609 1630 1449 1361 1349 1423 1517 1527 1497 1461 1375 1310 1213 1185 1129 1025 1005
2576 2408 2364 2299 2139 1891 1758 1729 1715 1486 1551 1266 1207 1331 1524 1304 1398 1396 1230 1366 1278 966 895 473 270 67 1 28 151 629 837 915 1619 1743 1506 1598 2024 2503 2590 2829 3360 3830 3885 3583 3399 3484 3238 2979 3747 3622 3161 3274 3100 2740 2514 2449 2253 2047 1851 1675 1504 1477 1563 1512 1509 1566 1541 1589 1631 1412 1428 1319 1282 1347 1371 1398 1469 1403 1250 1228 1183 1193 1151 904 767
2476 2361 2288 2420 2216 2038 1939 1917 1815 1365 1157 1177 1228 1163 1161 1568 1694 2079 1774 1676 1580 1180 865 864 88 0 99 56 120 284 296 843 1251 1518 1342 1390 1700 2053 1965 2118 2635 3038 3566 3952 3968 3770 3380 3175 3268 3321 3059 3261 3378 3140 2872 2639 2508 2442 2218 2036 1890 1619 1538 1564 1525 1472 1599 1606 1675 1583 1463 1302 1190 1219 1299 1169 1135 1074 1062 737 820 701 623 597 525
2409 2234 2256 2596 2464 2062 1991 1952 1785 1858 1400 1073 1161 1090 1391 2348 2024 1815 2304 1727 1558 1344 1080 909 191 6 0 1 8 52 460 694 803 1245 1318 1319 1510 1695 1851 2184 2430 2479 2592 2960 3535 3556 3395 3204 3150 3092 3009 2930 3026 3460 3350 3076 2604 2477 2500 2290 2048 1922 1727 1704 1680 1613 1516 1617 1677 1621 1414 1290 1246 980 924 1068 1154 1086 987 717 648 646 593 531 499
2615 2226 2310 2231 2482 2290 2112 2064 1928 1847 1769 1624 1332 2258 2726 1938 1789 1635 1717 1642 1523 1371 1201 1126 564 0 0 0 2 18 421 846 719 935 1112 1212 1266 1418 1753 1870 1994 2101 2007 2545 2758 3175 3402 3254 3171 3143 3082 2998 2871 2658 3294 3449 3095 2903 2714 2639 2501 2295 2023 1819 1819 1779 1719 1556 1439 1527 1563 1414 1132 1054 944 847 753 648 643 637 667 620 580 547 546
2357 2544 2288 2194 2240 2310 2248 2133 1956 2090 2288 2018 1941 1855 1912 1746 1775 1863 1940 1834 1592 1309 1159 1071 894 0 7 110 0 0 1154 493 618 758 983 961 1093 1329 1582 1784 1848 1754 1671 2300 2434 2403 2546 2949 3005 2965 3018 3078 2993 2821 2712 3139 2923 2949 2969 2838 2669 2525 2299 2186 2009 1957 1906 1869 1701 1491 1473 1501 1510 1189 1099 978 899 872 811 738 746 785 726 740 720
2190 2516 2409 2255 2173 2141 2134 2085 1965 1902 1787 1760 1665 1654 1651 1827 1964 2026 1835 1623 1340 1061 938 923 810 76 135 0 33 2 50 30 177 272 592 904 1023 1246 1378 1494 1536 1320 1308 1799 2178 2261 2203 2285 3004 2973 2992 3047 3020 2929 2854 2822 2967 3188 3109 3066 2875 2771 2582 2428 2280 2259 2253 2099 1942 1827 1668 1482 1383 1424 1365 1160 1061 972 892 788 812 718 694 726 746
2072 2353 2520 2255 2174 2075 2017 1967 1904 1826 1774 1690 1656 1876 1980 1917 1884 1788 1753 1501 1145 895 918 884 870 834 365 0 0 0 0 0 382 52 24 444 844 1027 1129 1232 1210 970 1010 1293 1682 2068 2178 2144 2543 3145 3192 3149 3136 3082 3002 2982 2917 3188 3061 3248 3208 3020 2789 2612 2548 2492 2473 2372 2144 2017 1890 1752 1618 1618 1480 1246 1101 1029 1209 953 835 781 671 665 712
1990 2155 2309 2231 2104 2063 2015 1998 1970 1938 1854 1729 1626 1764 1838 1756 1683 1592 1656 1743 1549 1155 1051 1083 1055 849 173 0 0 0 5 0 0 0 0 188 61 299 698 974 1007 845 729 887 1167 1423 1870 2200 2266 2632 3204 3295 3306 3290 3169 3066 2968 2877 2856 2798 3392 3322 3142 2893 2773 2718 2728 2571 2440 2296 2150 2000 1889 1772 1594 1437 1373 1251 1262 1085 831 787 668 529 587
1876 2020 2090 2250 2003 1963 1952 1938 1943 1913 2159 1780 1672 1669 1668 1660 1616 1397 1420 1408 1200 1246 1245 1159 1125 705 719 670 0 0 0 0 0 0 0 0 0 14 192 364 506 765 710 636 747 1043 1351 1878 2090 2238 2645 3018 3153 3261 3194 3059 2968 2924 2913 2884 3159 3549 3578 3250 3021 2906 2861 2808 2756 2550 2411 2254 2101 1978 1868 1714 1565 1461 1292 1120 764 588 640 602 633
1758 1832 1914 2057 2134 1934 1956 1980 1966 1790 1949 2185 1732 1567 1503 1520 1759 1570 1498 1504 1306 1320 1302 1219 1151 869 718 144 76 56 8 0 0 0 0 0 0 0 0 63 301 624 711 654 592 759 1048 1564 2146 2230 2383 2794 3005 3118 3189 3184 3158 3102 3080 3399 3359 3579 3901 3773 3426 3147 3010 2964 2927 2748 2635 2534 2354 2191 2087 2078 1917 1718 1487 1314 1066 848 649 708 858
1698 1700 1755 1828 2442 2010 1951 1961 1879 1607 2372 2175 1978 1893 1805 1578 1549 1738 1891 1642 1532 1188 1053 1300 1308 922 766 612 463 418 226 11 0 0 0 0 0 0 0 0 5 166 510 627 626 635 1029 1238 1698 2239 2396 2748 3120 3256 3303 3300 3290 3284 3294 3566 3651 3556 3965 4110 3897 3603 3284 3175 3111 3046 2928 2822 2692 2451 2281 2268 2161 1942 1643 1510 1323 1146 932 760 736
1593 1572 1642 1711 1880 2099 1899 1824 1739 1656 2396 2012 1930 1898 1862 1769 1595 1594 1530 1425 1351 2168 1817 1667 1269 1209 1040 914 855 656 382 30 1 0 0 0 1 0 0 0 0 0 0 46 505 772 990 1658 1786 1838 2005 2225 2463 2689 2858 3055 3306 3426 3423 3371 3818 4048 3837 4019 4082 3918 3649 3414 3365 3303 3078 2933 2837 2636 2357 2283 2266 2073 1803 1707 1544 1421 1249 1019 800
1520 1477 1503 1472 1598 2057 1970 1801 1851 2394 2756 2212 2050 2001 1935 1753 1555 1555 1939 1695 1366 1699 2093 1471 1391 1110 1128 1081 997 713 458 118 48 0 0 0 0 0 0 0 0 2 1 53 64 27 405 1016 1338 1512 1605 1674 1631 1422 1438 1882 3157 3505 3608 3550 3679 3942 3904 3942 4074 3981 3825 3533 3268 3229 3200 2999 2822 2669 2584 2340 2286 2213 1989 1816 1672 1579 1483 1268 1088
1561 1561 1497 1487 1511 1994 2266 2059 2225 2198 2341 2212 2134 2087 1988 1805 1559 1500 1524 1548 1543 1747 1592 1467 1195 1175 1104 1001 962 881 605 472 520 472 180 0 0 0 0 0 75 54 459 504 510 233 220 642 1075 1175 1216 1142 698 785 908 2867 3134 3727 4113 3827 3548 3624 3631 3554 3694 3635 3540 3436 3290 2921 2753 2958 2928 2728 2630 2651 2435 2336 2197 1973 1801 1689 1598 1406 1252
1633 1655 1666 1595 1533 1803 2039 2073 2183 2187 2217 2196 2147 2096 1919 1602 1436 1137 1150 1145 1448 1560 1576 1375 1050 1166 1098 986 1135 1056 887 686 699 640 516 429 25 155 33 142 301 486 606 609 743 364 242 338 338 1355 1027 233 402 625 832 1532 2051 3101 4277 3504 3528 3501 3562 3468 3303 3519 3546 3498 3411 3125 2916 2914 3046 2979 2709 2614 2619 2472 2399 2198 1995 1822 1691 1583 1381
1675 1690 1668 1681 1621 1668 2010 1958 1973 2075 2101 2056 2042 1989 1803 1566 1316 1030 1030 1099 1185 1464 1319 1132 1056 994 1161 1172 1198 1141 1084 978 899 742 685 585 476 405 352 338 484 559 573 799 843 692 473 622 495 423 201 721 1001 948 807 907 970 2093 3280 3834 3323 3254 3125 2889 3045 3244 3389 3599 3622 3576 3446 3250 3082 2856 2938 2972 2872 2662 2520 2420 2212 1981 1850 1727 1596
1634 1694 1735 1760 1782 1642 1914 1985 1955 1912 1872 1863 1865 1825 1708 1590 2138 1655 1642 1404 1195 1521 1362 1090 1264 1096 1186 1209 1242 1091 1020 940 756 847 857 818 711 609 502 417 452 468 556 762 998 979 1128 744 1215 1118 1458 1352 1171 1050 946 984 1760 2792 1814 2462 2470 2248 2240 2264 2268 2351 2924 3272 3491 3514 3437 3351 3061 3096 2994 3092 3141 3045 2775 2632 2418 2221 2083 1932 1786
1605 1691 1809 1842 1802 1818 1887 1957 1924 1937 1890 1845 1802 1746 1656 1552 1295 1375 1116 946 1066 1544 1394 1347 1394 1270 1331 1283 1080 928 1224 1382 1306 1270 1150 991 907 801 713 616 461 453 584 846 971 1130 1452 1509 1357 1245 1214 1130 952 859 1196 988 632 1791 1942 733 972 1096 1433 1632 1606 1868 2426 2875 3211 3322 3363 3270 3250 3108 3160 3289 3307 3044 2890 2839 2720 2099 2237 2239 2055
1663 1710 1759 1880 1892 1860 1873 1979 1940 1902 1880 1846 1786 1643 1557 1405 1003 999 998 1018 1654 1849 2059 1460 1176 1040 766 839 1018 1049 1250 1434 1526 1443 1293 1061 963 1002 1122 961 763 519 628 933 782 841 1148 1440 1384 1246 1108 1061 1160 1157 1066 914 951 1754 1274 829 803 764 684 855 1105 1268 1342 1582 1904 2278 2594 2957 3301 3332 3345 3400 3434 3216 2861 2659 2790 2651 2368 2052 2318
1355 1420 1588 1692 1836 2456 1825 1816 1891 1907 1884 1833 1863 1763 1585 1350 997 1146 1109 939 1926 2592 1988 1596 1302 936 1193 899 756 711 1661 1777 1621 1587 1508 1555 1616 1612 1540 1432 1242 896 778 599 569 696 769 1012 1046 1151 1156 1015 830 818 840 847 794 1692 1368 689 728 718 663 613 640 750 907 1069 1232 1440 1803 2281 2711 2941 3129 3362 3524 3187 2960 2590 2571 2532 2493 2451 2384
1077 1100 1290 1510 1642 1766 1783 1750 1794 1816 1798 1652 1683 1694 1309 1300 1597 1471 1386 1188 1432 1831 1706 1840 1544 1364 1466 1411 1520 2009 2024 2023 2025 1959 1941 1904 1759 1676 1634 1596 1422 1345 1206 1060 861 800 788 1007 966 990 724 662 767 812 888 804 801 1203 1135 910 904 887 1004 820 676 710 646 596 590 605 616 1008 1376 1586 1882 2142 2544 2758 2873 2567 2559 2003 2091 2184 2084
1450 1155 1021 1183 1502 1601 1718 1720 1746 1810 1751 1682 1640 1555 1308 1328 1529 2189 2172 1878 1644 1697 1722 1806 1661 1528 1651 1751 1689 1677 1709 1712 1831 1846 1838 1773 1642 1512 1393 1328 1292 1198 1106 1040 982 1002 1004 996 878 760 706 807 920 956 812 649 809 1174 1223 1238 1118 1357 1414 1170 1126 1170 1208 1246 1178 1004 837 749 697 802 1183 1602 1896 2160 2354 2461 2539 2088 1721 1744 2037
1661 1543 1131 993 1292 1477 1587 1618 1650 1691 1729 1746 1690 1612 1451 1839 1905 2212 2127 2099 1973 2039 2094 1909 1972 1952 1802 1781 1758 1717 1578 1545 1419 1638 1680 1737 1763 1696 1474 1331 1306 1385 1370 1292 1182 1128 1029 854 732 665 660 1010 743 712 616 652 720 718 1107 1366 1485 1452 1437 1456 1524 1598 1664 1692 1646 1470 1198 942 828 790 817 943 1336 1701 1883 2042 2200 2248 2030 1877 1811
1826 1434 959 1009 1140 1401 1481 1492 1493 1519 1669 1752 1689 1571 1749 2141 2245 2195 2124 1994 1990 2115 2012 2116 2177 2096 2065 1968 1831 1743 1700 1648 1488 1744 1599 1516 1582 1629 1551 1290 1379 1487 1353 1099 1007 888 805 741 676 519 516 435 463 515 699 632 508 665 823 1002 1093 1277 1485 1662 1757 1807 1862 1861 1804 1692 1554 1526 1439 1275 1138 1120 1162 1166 1255 1214 1171 1230 1233 1478 1677
1254 964 724 562 1086 1318 1333 1297 1296 1282 1471 1680 1800 1977 2092 2269 2378 2547 2258 2166 2065 1908 1858 1860 1936 1942 1910 1880 1888 1858 1744 1482 1509 1431 1450 1436 1362 1404 1343 1195 1164 1136 1019 976 922 809 754 717 538 491 469 459 494 490 437 416 605 653 835 1017 1073 1136 1260 1339 1474 1603 1715 1820 1844 1759 1626 1626 1748 1737 1632 1569 1506 1377 1206 1080 1000 1034 1095 1329 1541
1132 1062 929 1038 566 1146 1254 1221 1169 2165 2677 2632 2388 2343 2412 2474 2549 2478 2378 2354 2220 1990 1801 1756 1692 1614 1553 1544 1514 1363 1294 1184 1148 1254 1305 1322 1331 1228 1051 966 1051 1096 1132 1082 1038 813 705 604 577 571 573 471 508 466 443 526 574 610 758 695 594 610 664 845 1152 1469 1674 1736 1636 1368 1251 1439 1685 1663 1559 1462 1349 1142 1042 1237 1204 1040 979 1014 1042
1085 1270 1551 2068 1697 1267 1713 2208 2465 2645 2830 2884 2823 2795 2755 2675 2589 2522 2466 2285 2098 1873 1844 1797 1958 1757 1506 1340 1302 1154 1224 1240 1205 1182 1162 1156 1290 974 920 1048 1196 1232 1140 1051 935 790 690 608 582 582 518 425 402 454 517 623 652 599 610 663 720 721 544 722 898 1081 993 902 828 940 1155 1316 1277 1129 868 662 635 687 814 1012 1067 1036 1017 975 934
946 1437 1692 2129 1995 1347 1701 2339 2553 2724 2869 2884 2826 2790 2705 2627 2523 2456 2356 2274 2108 1896 1889 1786 1500 1314 1228 1285 1303 1285 1324 1176 1015 946 909 1065 962 934 1000 1237 1219 1050 1049 1012 907 826 726 645 566 566 480 452 460 493 531 613 532 489 606 762 836 644 302 166 150 271 497 578 611 699 818 858 878 808 32 0 542 613 645 661 830 919 980 1007 990
1275 1467 1591 2274 1727 1594 1613 2038 2401 2628 2733 2819 2743 2712 2691 2662 2581 2461 2344 2076 2030 1880 1603 1506 1454 1354 1128 1184 1305 1269 1161 1025 1024 1060 965 995 984 891 929 934 1036 1012 990 950 859 792 770 741 690 569 448 427 443 404 367 333 337 509 763 926 750 405 118 82 109 190 268 427 576 583 723 857 844 676 163 2 0 0 0 661 773 893 1023 1089 1043
1350 1608 2035 2462 2086 1899 1845 1667 1708 1984 2150 2090 1893 1742 2176 2444 2410 2320 2136 1949 1806 1652 1326 1124 1031 1064 1115 1201 1252 1200 1200 983 978 1086 1204 1190 1086 1104 1066 1075 1137 1056 1004 996 936 916 881 805 659 537 455 423 363 327 374 399 406 350 526 806 612 441 316 126 78 113 153 444 670 662 670 558 138 30 9 11 43 73 80 53 231 984 1030 630 688
1439 1706 2106 2442 2584 2437 2167 2041 1811 1602 1370 1172 1267 1684 2397 2413 2302 2028 1796 1651 1403 1195 1113 1319 1477 1398 1350 1267 1203 1212 1381 1609 1674 1535 1793 1734 1393 1295 1200 1156 1179 1184 1159 1048 1042 1005 883 748 630 561 454 294 253 313 349 372 416 434 524 648 629 425 295 50 73 49 133 348 715 594 126 43 14 12 13 22 53 647 594 620 854 849 673 553 22
1664 1833 2137 2307 2176 2100 1995 2000 1872 1639 1647 1720 2089 2238 2077 1748 1712 1753 1586 1333 1107 1056 1344 1487 1430 1279 1153 1274 1601 1601 1415 1533 1384 1266 1207 1298 1573 1560 1391 1273 1206 1123 1033 1013 1078 1018 909 818 683 532 481 419 307 309 286 283 349 565 601 580 378 100 28 23 5 4 0 202 108 47 22 5 30 6 0 0 2 53 6 111 704 789 684 390 56
1909 1876 2039 2173 2123 2152 2113 2099 2138 2053 2016 1832 2460 1760 1925 2199 1825 1576 1534 1553 1522 1502 1466 1156 960 1154 1138 1157 1144 973 768 509 410 260 336 387 342 408 597 979 1851 1477 1230 1017 938 933 1007 880 624 442 364 315 276 179 66 205 484 551 498 344 44 6 0 0 0 0 116 5 0 0 6 7 16 13 0 0 0 0 0 31 26 69 36 0 86
2261 2231 2122 2125 2223 2257 2241 2156 2025 1846 1876 1965 1690 1574 1753 2272 2337 1895 1692 1760 1670 1372 1200 1121 1127 1188 956 876 612 492 475 344 6 0 3 99 162 487 878 1100 1197 1475 1921 1517 1280 1178 1125 922 575 293 264 341 139 8 32 149 167 43 113 192 152 0 0 0 0 0 0 0 0 0 1 0 1 62 0 0 0 0 0 0 0 0 0 55 134
2478 2301 2385 2444 2368 2441 2410 2267 2180 2082 1944 1732 1565 1417 1747 1977 2047 1958 1773 1802 1448 1411 1518 1478 1370 1211 900 589 44 0 0 29 0 0 0 0 47 428 714 661 717 1429 1539 1505 1232 1108 1020 1022 718 343 218 248 11 4 24 14 14 0 0 0 0 0 0 0 0 0 0 0 0 1 121 5 0 0 0 0 0 0 0 0 0 0 0 0 0
2815 2523 2373 2441 2396 2323 2259 2231 2213 2056 1838 1628 1561 1322 1437 1740 1857 1707 1393 1273 1274 1350 1432 1104 990 1054 768 521 99 6 0 0 0 0 0 0 0 0 416 627 757 1124 1355 1230 1092 924 844 837 724 385 80 37 0 0 0 0 0 0 0 0 0 0 0 0 0 0 0 0 64 29 96 0 0 0 0 0 0 0 0 0 0 0 0 0 0
2650 2391 2302 2462 2308 2267 2229 2175 1966 1690 1472 1543 1474 975 727 1185 1570 1869 1418 1546 1584 1486 656 196 708 917 646 236 34 0 0 0 0 0 0 0 0 4 59 260 460 650 767 644 724 537 703 70 26 7 0 23 51 41 0 0 0 0 0 0 0 0 0 0 0 0 0 0 0 0 0 0 0 0 0 0 0 0 0 0 0 0 0 0 0
2516 2493 2484 2312 2184 2186 2050 1876 1568 1332 1420 1359 863 754 805 1201 1540 1797 1781 1570 1386 814 396 43 462 228 97 7 0 0 0 0 0 0 3 47 0 0 0 0 60 161 422 417 42 78 103 0 0 0 0 67 80 92 9 0 1 2 0 0 0 0 0 0 0 0 0 0 0 0 0 0 0 0 0 0 0 0 0 0 0 0 0 0 0
2194 2190 2345 2256 2128 1974 1802 1498 1440 1381 1289 829 794 813 850 1029 1588 1792 1704 1446 1117 626 327 297 0 0 0 0 0 0 0 0 0 0 1 0 0 0 0 0 0 0 0 0 0 26 0 0 0 0 2 0 19 28 20 4 23 28 0 0 0 0 0 0 0 0 0 23 6 0 0 0 0 0 0 0 0 0 0 0 0 0 0 0 0
2016 2120 2158 2072 1999 1860 1530 1428 1413 1035 777 720 734 794 916 1094 1271 1380 1354 1365 1041 539 346 325 146 196 80 1 0 0 0 0 0 0 0 0 0 0 0 0 0 0 0 0 0 7 16 2 2 2 2 68 38 72 44 26 118 208 0 2 4 0 0 0 0 0 0 0 68 2 0 0 0 0 0 0 0 0 0 0 0 0 0 0 0
2015 1939 1914 1858 1739 1610 1462 1426 1133 730 673 694 740 761 997 1251 1196 1086 965 876 642 425 354 246 179 0 0 17 4 0 0 0 0 0 0 0 0 0 0 0 0 0 0 0 0 0 0 0 0 0 0 4 8 0 0 0 20 212 8 5 2 0 0 1 0 0 0 0 180 17 0 0 0 0 6 2 0 0 0 0 0 0 0 0 0
Wind_Speed
5 3 1 2 2 4 5 6 7 8 8 9 8 9 9 9 8 8 9 9 5 6 6 2 3 2 3 3 3 2 3 3 2 3 4 6 7 9 13 14 13 14 14 15 16 16 16 16 15 15 15 14 13 12 12 12 12 12 13 13 14 15 15 13 14 15 15 15 15 16 15 15 14 15 16 16 14 14 15 16 15 14 15 13 15
5 3 1 2 3 4 4 5 6 8 9 9 8 8 8 8 7 7 8 9 6 6 4 1 3 3 3 4 3 3 4 4 4 4 4 6 6 7 13 13 14 14 14 14 15 15 15 15 14 14 13 13 12 12 12 12 11 12 12 12 13 12 12 11 11 11 12 13 13 13 13 14 14 15 14 13 14 13 14 13 13 13 12 12 11
5 3 1 2 3 3 5 5 7 7 7 8 8 8 8 7 7 7 8 9 7 nan 4 1 1 1 2 4 3 2 2 3 4 4 4 5 5 6 9 14 13 14 14 14 14 14 14 14 14 13 13 13 12 10 9 12 11 11 12 13 13 13 11 10 10 10 11 11 11 11 11 12 13 13 14 15 15 15 15 14 13 13 12 11 12
4 2 1 2 3 4 5 4 6 7 6 7 9 8 7 8 7 8 8 8 8 6 4 1 4 1 2 3 3 4 3 3 4 5 3 4 5 6 6 8 13 14 14 14 14 15 14 14 13 13 13 12 12 11 9 11 9 9 10 11 12 12 12 11 11 11 11 11 11 11 11 11 11 11 12 12 12 13 13 13 14 13 13 13 12
3 2 1 1 3 4 4 4 5 6 6 5 7 9 9 9 10 10 10 10 10 9 nan nan 3 nan 3 4 6 7 4 4 5 5 4 3 5 5 5 5 6 13 15 14 15 15 15 15 15 14 13 13 12 11 9 8 10 10 10 11 10 10 10 10 10 10 10 10 11 11 12 12 12 12 12 12 12 12 13 13 13 14 13 13 13
3 1 1 2 4 4 3 4 4 4 5 5 7 7 8 9 8 10 10 10 10 10 nan nan 3 nan nan 5 7 8 6 6 6 6 5 5 4 3 4 4 4 5 7 14 15 16 16 16 16 15 14 13 13 12 11 9 8 8 11 10 10 10 10 10 10 10 10 10 11 11 11 11 12 13 14 14 15 14 14 14 14 13 13 13 13
2 1 2 3 5 5 5 5 5 5 6 6 5 6 7 7 8 9 9 9 9 9 8 nan nan nan nan 7 8 9 7 7 6 6 7 6 5 4 3 4 4 4 4 4 10 15 16 16 15 15 15 14 13 13 12 11 10 9 10 11 10 9 10 10 11 11 11 11 11 11 11 12 12 12 12 13 14 14 14 15 14 14 14 15 14
1 1 3 5 5 6 5 6 6 6 6 7 5 5 6 7 7 7 9 9 10 10 nan nan nan nan nan 6 7 10 9 7 7 8 7 7 6 6 6 6 6 6 6 4 4 7 15 14 14 14 14 14 13 12 12 12 11 11 7 10 9 9 9 9 10 11 12 12 13 13 13 13 13 13 13 13 13 14 14 14 16 16 16 16 16
0 1 3 6 6 7 8 7 7 6 6 5 4 4 4 7 8 8 6 5 8 8 nan nan nan nan nan nan 6 9 10 8 7 9 9 8 7 7 8 8 8 9 8 8 6 7 10 14 13 14 14 14 14 13 12 12 12 11 10 8 10 9 9 9 9 10 11 12 13 13 14 14 14 14 14 14 15 15 16 15 16 16 17 17 17
0 2 4 6 6 7 8 9 9 7 6 5 4 5 5 5 7 7 6 5 5 6 6 6 6 nan nan nan 8 8 10 9 9 11 11 9 9 9 9 8 9 9 9 9 9 8 8 10 14 14 15 15 15 14 14 13 12 11 11 10 9 10 10 9 9 10 10 11 12 13 13 13 14 14 15 15 16 16 16 16 17 17 17 18 18
1 3 5 6 7 7 8 10 11 11 8 5 5 6 6 5 5 7 7 4 2 2 4 5 7 nan nan nan 7 6 8 10 10 11 11 9 9 9 10 9 9 10 10 11 10 10 10 10 10 10 11 16 15 15 15 15 14 14 13 13 12 10 12 11 11 12 11 11 12 13 13 14 15 15 15 16 17 17 17 17 17 17 18 18 17
2 3 5 7 7 8 9 11 11 10 8 7 5 5 6 7 8 7 9 8 4 2 2 4 nan nan nan nan 7 7 7 10 10 10 11 10 7 9 10 10 10 10 10 11 11 11 11 11 11 11 11 12 16 15 15 15 15 15 15 14 14 14 13 14 14 14 14 13 12 13 14 14 15 15 16 16 17 17 17 18 18 18 17 17 17
3 3 5 7 7 9 9 11 12 11 8 6 5 5 6 5 6 6 6 7 5 4 4 4 5 nan nan nan nan nan 5 10 10 9 10 10 10 9 9 10 10 10 10 11 12 12 13 13 13 13 13 13 13 15 16 16 16 16 16 15 16 16 16 16 15 15 16 16 14 14 14 15 15 15 16 16 17 18 19 19 18 18 18 18 17
3 3 5 6 7 7 8 10 13 13 11 8 6 6 8 8 8 8 5 5 4 3 4 5 4 nan nan nan nan nan 6 7 7 6 7 8 9 10 11 11 11 11 12 13 13 13 13 14 14 15 15 14 15 15 15 15 16 17 17 17 17 17 17 17 17 17 17 17 17 16 15 15 15 15 15 15 16 17 17 17 17 17 18 18 18
3 3 4 6 6 7 8 10 12 12 12 11 8 7 7 7 7 6 7 6 4 3 2 4 2 nan nan 6 nan nan 6 7 5 5 7 8 9 9 11 13 11 12 13 13 13 13 13 14 15 16 16 16 16 16 16 17 17 18 18 18 17 18 18 19 19 20 20 19 19 19 18 17 17 16 16 15 16 16 17 17 17 18 18 18 18
2 3 5 5 6 7 9 11 12 12 10 9 8 7 7 8 7 6 7 6 6 5 5 6 5 nan 7 nan nan nan nan nan 6 6 9 8 9 8 10 11 11 13 15 13 13 13 13 14 15 16 16 17 18 17 17 18 18 18 19 18 18 19 20 21 21 22 22 22 21 21 20 20 19 18 18 18 17 18 19 19 19 18 19 20 19
3 3 5 6 7 8 9 11 11 11 10 9 9 7 7 7 6 6 6 6 5 7 7 7 6 8 8 nan nan nan nan nan 8 nan nan 8 6 6 8 9 10 12 14 13 13 14 15 14 15 16 16 17 18 18 17 18 18 18 18 19 20 20 21 22 22 22 22 22 22 23 23 22 21 20 20 20 20 20 21 21 21 21 21 21 21
5 4 5 7 7 8 9 11 12 11 10 9 8 9 8 8 7 7 7 7 6 8 7 7 7 9 9 nan nan nan nan nan nan nan nan 9 nan 8 8 8 10 12 12 11 12 14 16 14 15 16 17 18 18 18 18 18 19 19 19 18 20 20 21 21 21 20 20 20 21 23 24 24 23 22 22 23 22 22 21 23 22 22 22 22 21
5 5 5 6 7 8 9 10 11 11 11 11 10 8 8 8 8 9 7 8 10 8 8 7 11 10 10 9 nan nan nan nan nan nan nan nan nan nan 10 9 12 13 12 11 11 13 14 15 15 16 17 18 19 18 18 19 20 20 20 20 20 20 20 21 20 19 18 18 18 20 22 23 24 23 23 23 23 22 22 21 21 21 21 21 21
6 7 6 6 7 8 9 9 10 11 12 11 10 9 9 9 9 9 9 10 11 10 9 10 11 9 11 11 nan nan nan nan nan nan nan nan nan nan nan nan 15 14 14 12 13 13 13 15 15 16 18 19 20 19 19 19 19 19 20 21 22 21 21 22 24 24 23 22 22 22 22 23 23 23 23 23 23 22 22 21 21 20 20 20 21
7 7 7 8 8 9 9 9 9 10 11 11 11 10 9 9 9 10 10 10 11 11 13 11 12 9 11 12 13 13 13 nan nan nan nan nan nan nan nan nan nan 14 14 14 15 15 15 15 16 18 20 22 22 22 20 20 19 20 18 18 20 20 21 21 22 23 23 22 20 20 21 21 22 22 23 24 24 24 23 22 22 21 21 20 20
8 9 9 8 9 9 10 9 9 9 10 11 11 10 10 9 7 8 10 10 11 11 11 10 11 10 11 12 13 14 15 nan nan nan nan nan nan nan nan nan nan nan nan nan 16 17 18 22 22 21 21 22 22 22 21 20 21 21 19 16 16 19 20 21 20 20 21 22 21 21 21 22 22 23 23 24 24 25 24 23 22 22 21 21 21
9 9 9 10 10 10 9 9 10 10 10 10 9 8 8 8 7 9 10 11 9 10 10 10 11 13 13 13 13 13 14 15 nan nan nan nan nan nan nan nan nan nan nan nan nan nan 20 23 23 22 23 22 22 21 20 19 20 21 21 20 21 21 22 24 26 24 23 21 21 20 20 21 22 23 24 25 25 25 25 25 24 23 23 22 22
11 11 10 11 12 11 10 11 10 10 10 9 8 8 8 9 8 9 9 9 10 10 9 9 10 11 12 13 13 14 15 15 14 15 15 nan nan nan nan nan nan nan 19 20 18 19 20 21 23 23 21 22 21 22 22 20 20 21 22 21 22 22 23 25 25 25 24 24 25 24 23 22 22 22 23 25 26 25 24 25 25 26 25 25 24
12 11 11 11 13 12 12 12 11 10 10 9 8 8 8 7 8 8 8 8 9 10 11 11 12 11 10 12 14 15 14 16 17 17 17 18 nan 18 nan 18 18 18 20 22 20 16 18 20 20 21 24 21 21 23 23 22 20 18 19 19 20 20 21 23 24 23 23 23 23 23 23 21 21 22 22 23 25 24 22 23 25 26 27 27 27
12 12 13 13 13 13 13 12 11 11 11 9 9 9 8 7 9 8 7 8 9 10 11 11 12 12 14 12 14 15 16 18 20 21 21 22 20 20 17 17 17 17 20 22 21 22 19 20 24 24 24 22 21 22 22 21 23 20 19 20 19 18 17 17 19 19 19 19 19 21 22 21 19 18 20 23 26 25 23 23 24 25 26 27 28
13 14 15 15 14 15 14 13 11 11 12 11 9 9 8 9 11 11 11 12 13 13 12 12 11 12 14 15 14 16 19 20 22 23 23 23 23 21 22 19 17 19 20 21 22 23 23 23 25 26 26 26 24 25 25 25 24 25 28 24 23 20 18 16 15 16 17 18 18 19 20 19 16 16 16 16 19 22 23 24 25 27 29 29 29
14 16 15 16 16 16 15 13 12 12 12 11 11 11 10 10 11 13 13 14 17 17 16 17 16 17 17 18 20 21 23 25 25 24 22 22 23 23 24 24 21 17 19 20 23 23 24 28 27 27 29 28 27 26 26 25 25 23 24 25 25 24 21 19 17 17 17 17 18 18 17 15 13 12 12 15 15 14 16 21 27 29 32 31 29
16 16 16 17 17 16 15 13 13 12 12 12 11 11 12 11 12 14 13 15 18 17 18 18 17 18 19 19 20 21 22 24 25 24 24 23 23 23 23 24 25 23 21 21 22 24 25 29 30 26 29 31 30 29 29 28 26 26 27 26 25 24 22 19 19 18 17 17 18 18 17 16 13 10 10 11 12 11 13 15 18 24 28 28 27
16 16 17 17 17 16 16 14 13 13 12 12 12 12 14 14 15 16 15 16 18 18 17 19 18 19 19 18 20 20 23 25 25 24 24 23 22 21 21 22 26 24 23 20 18 22 23 28 31 29 29 31 30 29 32 31 27 25 26 26 24 22 19 17 16 16 16 16 16 16 15 14 14 12 12 11 12 12 12 17 17 17 20 19 18
17 16 17 17 17 17 16 15 14 14 13 12 14 15 15 15 16 16 15 18 18 17 16 18 18 20 20 20 22 25 24 24 23 23 23 23 22 21 22 24 24 24 24 22 18 18 24 25 27 30 28 26 26 27 27 27 25 23 22 21 20 18 15 16 15 14 14 14 14 14 13 11 10 10 11 12 13 13 14 15 16 14 18 16 14
16 15 15 16 17 17 15 14 14 15 14 13 15 15 15 15 16 17 18 20 19 18 16 18 19 20 22 23 23 24 23 24 24 25 25 25 25 26 25 25 24 23 26 24 19 13 20 23 23 21 20 19 21 21 19 20 20 17 17 16 16 14 14 15 14 12 12 11 11 12 11 9 7 6 7 9 10 11 11 13 13 14 16 14 12
17 15 15 15 16 16 15 15 15 15 15 15 14 15 15 15 16 19 21 21 21 19 19 18 19 20 21 23 23 23 22 24 23 23 24 25 25 25 25 23 23 23 25 23 18 13 15 21 19 17 16 17 16 18 14 16 16 15 15 14 13 13 13 13 13 11 10 9 9 9 8 8 8 7 5 4 5 5 6 6 6 8 10 12 13
17 16 15 16 16 16 15 16 16 15 16 15 15 16 16 17 18 18 21 22 21 21 21 22 22 21 22 22 22 21 22 22 22 22 22 22 21 20 20 20 19 20 20 21 16 16 12 15 13 14 13 15 13 15 14 13 12 12 11 11 12 12 11 11 11 11 8 7 6 5 5 5 4 5 4 3 4 2 1 2 4 6 10 13 12
30 27 22 19 16 16 17 18 17 16 16 17 18 18 18 18 19 21 22 22 22 22 23 23 22 22 23 22 21 21 21 21 21 20 20 20 20 18 15 16 16 17 18 17 17 15 13 12 14 12 13 12 12 10 11 12 12 11 10 10 10 10 11 10 10 10 8 5 4 3 3 3 3 4 4 5 5 3 3 3 4 6 9 13 13
33 32 33 25 17 17 20 21 21 21 20 20 20 20 21 22 23 23 22 21 21 22 22 22 22 23 23 23 21 20 20 20 20 18 17 17 18 17 15 14 14 15 16 16 15 15 15 12 13 12 11 10 9 10 11 11 11 10 11 10 10 10 9 9 10 9 8 5 3 2 2 3 4 4 4 4 4 4 4 5 6 8 10 13 17
31 28 21 16 19 21 24 23 24 22 21 21 23 24 25 25 26 24 22 21 22 22 20 21 22 23 22 21 20 20 20 20 18 17 16 15 16 15 14 13 14 13 14 15 14 15 13 11 10 11 10 10 11 9 11 10 9 10 11 11 10 9 9 10 10 10 8 6 5 5 5 5 5 4 3 3 3 2 3 4 6 8 10 12 15
24 21 16 18 24 23 23 23 24 23 21 23 25 27 27 27 26 25 23 26 22 22 21 21 22 21 21 19 19 20 20 19 17 16 15 14 14 14 13 13 13 13 13 13 14 14 13 11 9 9 10 9 9 10 10 11 9 8 9 10 12 13 13 12 11 12 14 13 13 12 11 10 8 7 nan nan 5 5 5 5 6 7 9 11 14
24 22 22 29 27 23 25 25 24 24 25 27 29 29 27 24 24 24 24 24 24 22 21 21 20 20 19 18 19 21 21 19 17 15 15 14 13 13 13 13 13 12 12 12 12 12 12 11 12 11 9 11 12 10 11 12 12 14 12 12 13 15 16 nan 14 14 16 15 15 13 13 12 11 11 10 nan nan nan nan 9 10 10 12 13 16
25 28 32 29 28 27 27 27 26 26 28 30 28 25 23 23 23 22 22 23 22 21 21 20 19 19 18 18 18 19 20 18 16 14 15 13 13 12 10 11 11 12 11 11 12 12 12 13 13 12 13 14 14 15 15 16 17 17 18 17 15 14 14 17 nan 16 17 18 16 16 17 18 16 nan nan nan nan nan nan nan 16 17 18 18 19
30 31 29 30 30 30 28 28 27 26 28 29 26 25 26 25 24 23 22 22 21 21 21 20 20 19 19 18 18 18 17 16 13 13 13 12 13 10 9 11 11 12 12 12 13 13 14 15 14 15 15 16 16 16 16 18 17 15 15 18 18 16 16 nan nan nan 21 20 18 17 17 nan nan nan nan nan nan 20 20 21 22 21 20 21 nan
30 29 28 30 31 29 28 28 28 30 28 24 25 29 27 26 25 24 22 21 21 22 22 22 20 20 21 20 18 16 18 19 18 17 14 11 10 11 11 12 12 13 14 14 14 15 15 15 15 16 15 16 15 16 17 17 16 17 16 18 17 16 nan nan nan nan nan 24 23 nan nan nan nan nan nan nan nan nan nan 25 25 25 24 23 nan
27 27 27 28 28 28 27 26 28 28 23 23 28 29 28 28 26 23 21 20 20 21 22 23 23 23 23 23 21 23 21 18 15 15 14 14 14 13 11 11 13 15 16 15 14 15 16 16 17 16 16 15 15 16 nan 16 18 19 19 19 nan nan nan nan nan nan 24 nan nan nan nan nan nan nan nan nan nan nan nan nan nan nan nan nan nan
24 26 25 24 25 26 25 24 25 26 26 28 29 28 26 25 25 22 21 20 21 22 22 22 23 24 24 23 21 19 18 16 nan nan nan nan 15 13 13 13 13 10 13 16 16 17 18 18 17 17 18 18 17 nan nan 21 20 nan 21 22 22 nan nan nan nan nan nan nan nan nan nan nan nan nan nan nan nan nan nan nan nan nan nan nan 35
24 24 24 25 25 24 24 25 25 25 25 27 28 28 26 25 23 23 21 20 22 22 22 23 24 24 23 22 nan nan nan nan nan nan nan nan nan 14 15 17 15 13 15 16 15 17 20 20 20 19 21 22 nan nan nan nan nan nan nan nan nan nan nan nan nan nan nan nan nan nan 28 nan nan nan nan nan nan nan nan nan nan nan nan nan nan
25 24 25 26 26 25 25 26 25 25 25 27 26 25 24 21 20 22 21 21 22 23 23 24 25 24 22 21 nan nan nan nan nan nan nan nan nan nan 17 19 19 21 24 25 26 26 23 23 23 22 nan nan nan nan nan nan nan nan nan nan nan nan nan nan nan nan nan nan nan nan nan nan nan nan nan nan nan nan nan nan nan nan nan nan nan
26 26 27 28 28 28 28 28 26 26 26 27 24 23 23 22 20 22 21 22 24 25 25 25 24 23 21 20 nan nan nan nan nan nan nan nan nan nan nan 23 23 23 24 24 25 24 23 nan nan nan nan nan nan nan nan nan nan nan nan nan nan nan nan nan nan nan nan nan nan nan nan nan nan nan nan nan nan nan nan nan nan nan nan nan nan
28 29 28 28 28 29 28 28 27 26 24 25 23 24 22 19 18 21 21 23 26 27 26 nan 24 23 nan nan nan nan nan nan nan nan nan nan nan nan nan nan nan 26 27 26 nan nan 25 nan nan nan nan nan nan nan nan nan nan nan nan nan nan nan nan nan nan nan nan nan nan nan nan nan nan nan nan nan nan nan nan nan nan nan nan nan nan
23 23 25 27 28 27 27 26 26 23 21 21 22 21 18 18 20 21 23 26 27 27 25 24 nan nan nan nan nan nan nan nan nan nan nan nan nan nan nan nan nan nan nan nan nan nan nan nan nan nan nan nan nan nan nan nan nan nan nan nan nan nan nan nan nan nan nan nan nan nan nan nan nan nan nan nan nan nan nan nan nan nan nan nan nan
19 20 23 26 26 24 24 23 21 21 20 20 19 16 19 20 20 21 25 27 27 27 26 24 23 23 nan nan nan nan nan nan nan nan nan nan nan nan nan nan nan nan nan nan nan nan nan nan nan nan nan nan nan nan nan nan 33 37 nan nan nan nan nan nan nan nan nan nan nan nan nan nan nan nan nan nan nan nan nan nan nan nan nan nan nan
21 22 24 25 24 24 22 22 22 21 21 19 17 18 22 23 23 24 26 27 28 27 26 25 23 nan nan nan nan nan nan nan nan nan nan nan nan nan nan nan nan nan nan nan nan nan nan nan nan nan nan nan nan nan nan nan nan 35 nan nan nan nan nan nan nan nan nan nan 37 nan nan nan nan nan nan nan nan nan nan nan nan nan nan nan nan
Wind_Direction
355 15 222 163 129 110 110 126 142 150 165 162 164 163 164 157 150 140 134 125 151 134 115 65 52 360 352 56 76 64 37 35 47 47 58 59 59 56 45 42 35 31 34 38 39 37 36 38 37 38 43 47 47 40 30 39 39 42 42 46 48 51 52 49 47 47 47 47 41 38 41 40 40 44 41 41 38 35 36 33 32 35 40 33 38
348 347 300 136 144 129 119 116 124 145 162 162 164 174 176 170 156 158 149 142 173 166 198 314 12 338 338 19 33 28 42 38 34 30 45 55 51 56 36 39 34 28 29 32 35 35 33 35 35 35 36 40 45 54 24 26 31 37 36 32 39 45 47 49 45 41 40 41 39 35 33 33 31 30 31 31 32 30 37 27 28 29 28 28 31
328 335 356 143 146 127 121 116 126 137 153 160 168 184 189 181 175 170 166 155 164 nan 178 268 258 322 356 357 6 352 28 42 19 7 27 46 55 58 42 31 31 29 24 26 29 30 29 30 31 30 30 33 37 40 29 16 21 27 30 28 28 33 35 33 38 34 32 32 27 26 28 24 27 25 22 20 23 21 19 17 17 15 15 14 20
315 318 338 155 144 140 130 137 118 128 142 161 171 173 184 188 193 193 188 176 163 208 158 291 307 334 344 332 325 323 345 17 16 3 18 33 46 47 46 33 31 26 24 23 23 24 25 24 24 23 24 26 29 28 40 4 18 17 25 26 23 27 27 27 25 28 22 23 15 13 13 11 16 15 20 16 16 15 9 9 6 5 5 7 7
312 308 267 163 162 150 145 133 120 123 137 150 169 190 189 189 193 200 192 191 182 201 nan nan 273 nan 333 323 328 325 332 351 6 350 353 15 22 35 30 33 41 28 24 25 23 21 22 21 19 18 18 19 21 22 28 14 8 5 12 16 18 20 20 18 20 23 19 16 12 8 5 6 3 3 0 358 360 2 2 1 356 355 353 359 357
300 266 204 164 162 164 162 151 133 130 147 166 168 181 189 195 189 197 193 201 190 193 nan nan 275 nan nan 310 322 314 326 342 353 345 323 343 352 12 19 7 30 31 23 26 24 20 19 19 18 16 13 13 16 16 18 19 16 15 360 3 10 8 11 10 8 12 10 10 5 4 2 1 358 357 354 353 353 356 354 353 349 348 347 348 350
299 277 179 164 153 160 173 154 153 155 141 141 150 164 184 188 192 198 201 199 204 198 212 nan nan nan nan 299 311 307 317 331 334 316 317 323 321 331 331 335 352 4 10 13 22 20 16 16 16 14 11 9 11 13 12 14 12 17 2 354 359 8 4 5 1 0 2 359 356 356 356 354 355 354 353 352 351 352 350 346 342 345 348 347 343
276 199 166 163 157 165 167 167 165 159 142 141 161 147 161 178 181 213 207 191 204 197 nan nan nan nan nan 272 287 300 312 313 311 302 303 303 319 316 319 325 334 338 345 344 353 3 15 14 11 9 7 4 5 8 8 8 8 8 13 355 352 2 1 1 360 356 358 355 352 353 351 350 351 352 353 351 350 348 345 341 343 346 346 347 346
274 170 169 166 165 173 174 175 181 175 151 143 145 119 148 159 164 184 213 198 197 195 nan nan nan nan nan nan 265 286 293 297 292 290 288 296 307 310 313 326 330 342 330 330 336 334 5 12 7 4 2 358 357 359 359 0 0 359 0 356 351 352 352 355 356 353 356 355 353 352 350 348 348 349 349 348 345 344 344 345 345 346 347 345 345
109 165 153 158 174 184 181 185 189 177 161 157 138 153 157 159 154 158 172 191 194 181 165 170 185 nan nan nan 262 271 275 282 283 281 288 297 303 311 318 320 322 328 323 320 324 324 328 354 2 2 359 356 353 351 350 350 352 352 350 351 350 342 343 349 349 347 349 352 350 349 348 347 346 347 346 345 343 342 342 345 345 343 343 343 341
118 156 150 158 173 181 179 184 191 180 177 181 168 165 166 176 165 156 159 163 172 146 124 137 155 nan nan nan 282 272 271 269 271 280 287 294 303 308 304 314 314 314 315 317 318 321 324 317 318 320 333 354 350 349 346 345 344 346 347 347 346 348 340 344 342 339 343 346 346 346 346 345 343 343 344 344 342 341 340 338 339 339 342 339 340
117 144 156 163 175 179 176 178 188 193 190 205 189 170 177 186 180 177 164 166 180 157 150 165 nan nan nan nan 302 304 284 280 277 281 283 284 290 287 298 301 304 307 309 312 313 316 315 311 312 313 312 332 349 345 345 343 342 341 344 346 346 348 347 342 342 338 336 339 341 342 341 342 341 341 341 341 340 339 338 336 336 336 333 334 336
121 156 161 164 172 179 178 176 187 194 189 190 194 185 207 212 194 193 176 180 186 185 192 240 204 nan nan nan nan nan 302 288 298 293 290 290 287 287 291 295 299 301 302 300 305 307 308 312 311 305 307 305 317 339 341 339 338 337 340 343 346 348 348 346 343 340 337 338 342 341 340 339 339 338 337 337 336 336 335 334 331 330 329 329 331
130 160 168 171 173 179 178 177 186 187 187 191 207 210 213 209 214 197 210 203 198 199 177 231 218 nan nan nan nan nan 275 282 290 295 301 295 295 297 300 305 301 297 293 298 300 302 306 308 305 303 303 302 302 301 308 316 323 336 335 340 342 344 344 342 341 339 339 340 340 341 340 340 336 336 334 334 334 332 329 329 328 328 326 325 324
151 164 166 167 170 178 173 181 187 190 190 189 198 201 214 216 218 225 192 207 214 192 195 269 270 nan nan 243 nan nan 244 256 275 291 309 307 296 299 307 303 303 295 296 299 300 300 300 299 300 300 300 300 299 300 302 304 308 326 333 334 336 339 340 341 341 340 339 340 337 335 335 334 334 333 332 332 330 327 325 325 325 325 325 324 324
173 166 160 166 170 169 173 180 183 190 194 196 203 212 215 215 225 233 247 208 225 222 239 257 275 nan 228 nan nan nan nan nan 303 295 307 310 300 304 294 300 299 290 290 302 309 306 303 301 306 305 304 300 295 296 298 300 313 324 330 330 333 336 341 343 343 342 339 337 335 333 332 332 332 331 330 330 330 327 327 327 326 327 326 326 325
211 181 168 168 173 174 175 174 179 181 194 202 210 223 234 239 242 240 243 254 217 240 235 248 257 282 275 nan nan nan nan nan 254 nan nan 284 282 285 279 291 296 298 298 304 301 304 306 309 309 306 308 305 301 299 298 300 301 302 312 327 333 336 341 344 345 342 339 336 334 333 333 332 333 329 329 331 330 326 322 326 327 327 328 328 327
222 201 184 187 181 177 178 177 179 181 193 199 210 222 227 233 238 248 238 254 257 236 232 231 235 266 294 nan nan nan nan nan nan nan nan 269 nan 278 282 289 292 292 291 292 295 298 298 304 302 306 308 307 306 304 304 303 299 298 299 308 336 340 342 347 346 343 340 337 335 334 334 334 334 333 332 330 329 327 322 323 328 327 329 328 328
224 216 205 198 195 188 183 182 182 191 200 209 215 224 229 235 235 246 254 251 262 260 258 243 229 258 282 283 nan nan nan nan nan nan nan nan nan nan 285 295 289 284 287 294 295 292 293 294 298 303 303 302 302 305 304 302 305 309 315 320 334 343 342 342 342 343 344 341 337 338 338 338 338 336 332 329 328 326 325 326 329 328 328 327 323
233 224 219 215 212 202 196 194 194 197 208 215 217 217 224 225 239 251 250 267 277 277 265 263 267 263 268 261 nan nan nan nan nan nan nan nan nan nan nan nan 284 291 297 300 298 299 298 291 294 297 297 299 298 293 292 295 300 307 314 330 334 340 341 337 341 345 348 349 346 345 344 343 340 336 332 329 327 327 329 330 330 329 327 323 319
239 236 226 225 224 219 214 210 209 206 214 222 223 225 230 231 236 249 259 268 277 275 269 272 276 272 256 262 261 265 261 nan nan nan nan nan nan nan nan nan nan 277 288 289 286 284 286 288 278 272 273 276 279 284 292 297 301 304 311 329 336 337 337 337 341 344 343 344 345 346 346 343 338 333 329 327 326 327 331 332 333 332 329 327 321
239 236 234 230 230 230 228 228 227 227 228 232 235 235 239 247 254 267 272 270 272 277 285 286 289 278 277 278 269 268 263 nan nan nan nan nan nan nan nan nan nan nan nan nan 275 282 280 275 274 276 280 283 282 285 290 297 301 303 310 320 321 330 339 336 337 340 341 343 345 344 343 340 335 331 327 323 322 322 327 329 330 329 329 327 325
248 242 243 239 238 239 240 241 241 241 243 244 241 244 246 254 261 271 270 276 279 285 288 287 284 279 278 279 279 280 280 280 nan nan nan nan nan nan nan nan nan nan nan nan nan nan 280 281 283 282 281 284 288 290 295 295 299 305 317 316 322 326 331 331 331 337 341 343 342 337 333 331 328 326 326 325 322 319 320 323 324 324 322 321 319
250 249 244 242 242 244 245 247 248 250 252 250 247 247 245 251 257 266 273 281 284 289 291 283 283 286 283 285 285 286 283 286 284 284 283 nan nan nan nan nan nan nan 279 274 269 260 273 282 285 287 287 285 286 282 279 284 292 306 306 318 323 328 326 321 326 332 337 338 337 336 336 333 326 323 324 324 323 318 316 317 317 318 317 318 318
257 258 254 254 248 250 251 252 251 255 256 254 251 252 249 254 261 270 279 287 297 298 297 299 298 298 297 288 288 286 290 290 290 291 288 288 nan 282 nan 284 287 279 282 283 282 275 273 273 279 280 286 283 277 278 284 289 289 297 312 303 321 320 321 321 321 327 328 331 333 336 335 334 326 319 319 322 320 317 313 313 312 313 315 316 317
268 266 264 262 257 259 259 259 259 261 262 263 262 259 260 261 261 267 276 287 287 293 300 300 300 302 296 293 288 293 296 294 294 295 297 295 293 294 292 284 285 284 281 282 286 280 278 275 275 278 276 274 277 278 277 278 277 272 280 295 297 310 316 317 313 316 322 325 329 331 330 330 332 329 321 318 318 317 311 310 311 311 312 314 316
269 265 263 265 264 260 261 262 262 264 263 263 263 260 259 258 267 270 268 275 278 285 287 286 285 284 283 289 290 286 285 287 289 289 291 294 299 297 293 281 277 278 280 282 281 286 288 283 279 281 276 274 270 272 275 277 278 275 278 282 284 290 301 308 313 317 318 320 321 322 325 326 330 325 326 326 323 320 314 310 309 309 309 312 317
262 260 264 265 263 261 261 262 261 264 266 267 264 261 260 269 271 271 269 266 272 274 276 277 275 275 277 282 284 286 288 284 285 289 290 293 295 295 291 289 286 279 276 278 279 283 287 285 282 283 289 289 283 282 285 283 284 282 282 284 286 287 294 302 308 309 309 309 309 310 312 316 319 320 321 320 324 323 323 318 311 310 310 314 320
261 257 259 259 260 261 260 260 260 261 262 265 267 265 267 270 271 267 265 268 272 278 280 276 276 277 275 276 278 280 281 283 283 285 289 293 297 299 297 294 293 287 283 281 283 287 285 286 286 291 292 287 286 291 292 293 294 297 292 289 288 287 289 294 295 292 288 289 292 295 296 294 297 299 300 308 315 318 317 309 309 310 314 319 323
260 256 258 261 259 261 259 258 261 261 263 262 262 264 267 269 270 270 274 275 275 275 278 278 278 276 275 277 282 282 282 283 286 287 290 292 296 298 298 296 295 295 294 290 286 290 287 283 287 286 283 282 286 291 294 297 300 301 298 296 295 293 294 292 290 293 294 295 297 299 294 288 282 280 281 289 296 300 299 301 302 303 303 310 317
258 256 258 261 260 260 260 259 260 264 263 263 262 264 266 268 268 275 275 277 279 278 276 281 282 283 282 280 279 282 282 284 287 287 285 284 284 287 288 292 296 295 296 291 285 282 287 284 282 284 284 283 285 288 289 292 296 301 304 304 303 305 311 302 308 308 306 307 311 313 310 301 292 289 291 290 294 292 288 285 293 303 300 308 316
250 257 260 260 259 258 259 262 261 262 265 265 267 270 272 276 279 280 276 276 276 276 272 274 282 286 287 286 284 285 286 286 285 284 285 285 285 282 282 284 286 289 291 291 295 290 285 284 281 281 286 287 281 282 288 292 298 301 303 308 309 311 308 304 308 312 312 310 309 313 320 322 320 310 298 293 290 285 281 284 290 297 303 316 324
242 251 257 262 260 258 259 257 259 262 263 263 266 270 271 271 273 275 274 276 277 278 281 281 278 281 284 287 288 290 292 292 292 292 291 290 287 286 287 287 290 292 292 293 295 289 276 285 291 290 284 278 280 289 289 291 293 296 301 308 309 310 311 310 308 313 320 321 319 321 325 330 330 330 324 318 309 299 288 281 282 286 287 298 307
241 247 254 255 258 263 262 262 264 264 262 265 264 265 266 262 263 269 275 276 276 278 280 281 281 284 292 296 299 301 301 301 301 300 298 297 294 292 295 298 300 297 296 293 296 287 282 276 278 282 283 285 288 292 292 285 289 295 299 304 311 314 318 317 316 318 333 332 327 333 346 351 349 340 347 350 339 332 294 259 263 273 286 300 307
229 226 227 232 248 256 260 264 265 261 259 260 264 268 267 269 271 269 270 274 279 282 283 287 292 297 297 299 301 305 304 301 301 301 302 303 301 302 302 298 298 295 294 296 292 290 288 284 287 279 284 280 287 286 283 293 299 301 303 305 306 309 314 316 319 321 330 337 341 357 19 21 9 6 1 351 349 354 342 325 305 303 308 310 311
230 226 213 199 223 247 253 257 254 253 251 255 259 262 266 267 268 270 271 273 276 279 285 291 294 296 297 297 302 305 304 302 300 300 302 302 303 301 299 295 294 292 293 296 298 295 288 284 283 282 288 285 291 295 293 294 300 299 306 309 307 308 308 306 308 309 310 316 322 343 18 14 4 1 1 359 354 350 336 325 319 314 313 311 311
235 238 238 217 225 237 248 254 258 258 258 261 260 258 259 262 267 271 274 277 275 280 289 294 297 295 296 300 302 302 299 300 298 297 297 298 300 302 301 297 298 296 296 300 302 298 297 296 288 293 294 301 305 300 295 288 289 300 305 305 302 295 291 293 295 299 300 301 305 309 315 322 323 321 318 311 308 303 285 281 291 301 304 304 306
258 264 259 248 240 246 250 255 258 260 259 258 258 259 260 262 266 270 274 275 284 292 290 293 294 295 295 298 298 297 297 297 296 295 295 297 295 297 296 295 298 299 300 299 300 298 298 301 298 290 289 284 283 291 293 289 288 288 287 291 292 293 290 284 288 295 296 294 292 293 298 299 301 301 nan nan 304 293 279 271 271 273 279 287 292
271 270 257 244 245 244 253 256 255 255 255 253 252 253 257 263 268 269 270 278 282 283 286 289 289 288 290 292 294 295 295 296 296 296 297 294 291 294 298 298 300 299 296 297 295 292 294 292 293 295 289 290 291 278 280 280 289 294 288 282 280 286 289 nan 285 285 289 290 296 308 307 302 297 292 289 nan nan nan nan 280 276 271 268 268 273
253 252 250 251 250 248 247 253 257 257 258 258 261 266 270 269 268 269 272 275 279 283 287 286 285 286 290 291 292 294 295 295 296 296 297 294 290 291 291 291 294 296 295 293 291 290 288 286 287 283 288 285 279 290 289 283 279 281 285 287 281 277 276 285 nan 291 290 287 287 284 290 288 286 nan nan nan nan nan nan nan 273 273 272 273 278
247 249 252 254 257 254 254 260 263 261 261 265 268 272 271 269 269 272 274 276 281 285 285 284 285 288 287 290 291 290 291 293 295 294 298 300 296 290 288 290 289 292 291 288 290 290 290 290 290 292 287 283 285 282 276 280 277 283 286 287 292 291 288 nan nan nan 297 292 285 284 284 nan nan nan nan nan nan 269 269 269 273 272 275 276 nan
249 251 251 254 258 262 264 264 262 257 255 258 269 277 274 271 271 272 276 281 282 282 282 283 284 285 288 287 284 288 281 272 269 268 265 266 273 291 298 295 294 295 296 295 298 296 295 293 290 286 283 281 281 282 287 291 292 291 286 285 283 284 nan nan nan nan nan 286 281 nan nan nan nan nan nan nan nan nan nan 277 281 282 279 278 nan
255 255 258 262 260 260 263 265 263 263 264 264 276 274 277 281 274 276 280 281 279 281 282 284 284 281 276 276 272 268 263 255 253 247 248 249 255 260 266 281 305 312 306 308 306 303 301 298 291 287 288 288 287 289 nan 290 290 289 291 286 nan nan nan nan nan nan 286 nan nan nan nan nan nan nan nan nan nan nan nan nan nan nan nan nan nan
259 255 260 263 260 258 257 258 257 258 258 265 271 273 270 276 280 276 277 279 282 283 283 282 280 278 278 273 269 265 263 262 nan nan nan nan 252 255 260 261 255 265 313 313 307 300 300 298 294 293 294 294 291 nan nan 286 285 nan 286 285 288 nan nan nan nan nan nan nan nan nan nan nan nan nan nan nan nan nan nan nan nan nan nan nan 279
255 256 259 260 259 256 255 257 258 258 258 263 264 266 266 266 280 281 273 279 282 281 280 277 275 277 277 272 nan nan nan nan nan nan nan nan nan 249 251 252 254 256 290 303 298 296 299 298 296 294 296 296 nan nan nan nan nan nan nan nan nan nan nan nan nan nan nan nan nan nan 298 nan nan nan nan nan nan nan nan nan nan nan nan nan nan
255 255 255 257 255 256 257 260 260 257 254 258 255 258 258 261 262 266 272 277 277 277 276 273 273 275 274 272 nan nan nan nan nan nan nan nan nan nan 269 271 274 265 268 271 276 289 296 300 299 298 nan nan nan nan nan nan nan nan nan nan nan nan nan nan nan nan nan nan nan nan nan nan nan nan nan nan nan nan nan nan nan nan nan nan nan
258 258 258 257 255 256 257 257 256 253 250 249 246 250 249 248 256 265 268 269 269 267 265 264 266 269 269 269 nan nan nan nan nan nan nan nan nan nan nan 278 277 279 279 280 284 288 290 nan nan nan nan nan nan nan nan nan nan nan nan nan nan nan nan nan nan nan nan nan nan nan nan nan nan nan nan nan nan nan nan nan nan nan nan nan nan
248 249 248 252 256 255 254 254 252 250 243 240 240 243 248 255 266 261 265 267 266 265 262 nan 262 262 nan nan nan nan nan nan nan nan nan nan nan nan nan nan nan 280 280 280 nan nan 287 nan nan nan nan nan nan nan nan nan nan nan nan nan nan nan nan nan nan nan nan nan nan nan nan nan nan nan nan nan nan nan nan nan nan nan nan nan nan
254 253 250 248 250 254 254 253 254 252 252 245 245 248 252 263 265 265 264 266 268 265 260 260 nan nan nan nan nan nan nan nan nan nan nan nan nan nan nan nan nan nan nan nan nan nan nan nan nan nan nan nan nan nan nan nan nan nan nan nan nan nan nan nan nan nan nan nan nan nan nan nan nan nan nan nan nan nan nan nan nan nan nan nan nan
253 253 249 246 247 251 254 257 256 259 257 251 249 254 265 268 269 267 269 271 267 264 260 256 257 259 nan nan nan nan nan nan nan nan nan nan nan nan nan nan nan nan nan nan nan nan nan nan nan nan nan nan nan nan nan nan 290 296 nan nan nan nan nan nan nan nan nan nan nan nan nan nan nan nan nan nan nan nan nan nan nan nan nan nan nan
251 249 249 247 244 241 244 250 263 258 254 251 250 262 270 268 264 267 270 268 266 264 265 261 257 nan nan nan nan nan nan nan nan nan nan nan nan nan nan nan nan nan nan nan nan nan nan nan nan nan nan nan nan nan nan nan nan 289 nan nan nan nan nan nan nan nan nan nan 291 nan nan nan nan nan nan nan nan nan nan nan nan nan nan nan nan